When you browse on this site, cookies collect data to enhance your experience and personalize the content and advertising you see.
Visit our Privacy Policy to learn more. By continuing to use the site, you agree to this use of cookies and data.
  • în România
  • Lista ţărilor
  • Pe 7 zile
  • Temperatura apei
  • Meteo pe hartă
  • Widget-uri
  • user-avatar
    Intrare

    Meteo pe oră la Neuquén

    Astăzi, 22 Noiembrie, Vineri

    Timp Temperatura Precipitaţii Vânt Presiune Umiditate
    00:00 +17°C° 0 mm 5 m/s 735 mmHg 21%
    01:00 +15°C° 0 mm 4 m/s 736 mmHg 22%
    02:00 +15°C° 0 mm 4 m/s 736 mmHg 24%
    03:00 +14°C° 0 mm 3 m/s 736 mmHg 26%
    04:00 +13°C° 0 mm 3 m/s 736 mmHg 28%
    05:00 +15°C° 0 mm 4 m/s 737 mmHg 24%
    06:00 +17°C° 0 mm 5 m/s 737 mmHg 21%
    07:00 +20°C° 0 mm 6 m/s 738 mmHg 17%
    08:00 +22°C° 0 mm 7 m/s 738 mmHg 15%
    09:00 +24°C° 0 mm 7 m/s 737 mmHg 12%
    10:00 +27°C° 0 mm 8 m/s 737 mmHg 10%
    11:00 +28°C° 0 mm 9 m/s 737 mmHg 10%
    12:00 +29°C° 0 mm 9 m/s 736 mmHg 10%
    13:00 +31°C° 0 mm 9 m/s 735 mmHg 9%
    14:00 +31°C° 0 mm 9 m/s 735 mmHg 9%
    15:00 +32°C° 0 mm 8 m/s 734 mmHg 10%
    16:00 +32°C° 0 mm 8 m/s 734 mmHg 10%
    17:00 +31°C° 0 mm 8 m/s 734 mmHg 10%
    18:00 +28°C° 0 mm 7 m/s 734 mmHg 11%
    19:00 +27°C° 0 mm 6 m/s 734 mmHg 12%
    20:00 +26°C° 0 mm 7 m/s 734 mmHg 13%
    21:00 +24°C° 0 mm 8 m/s 734 mmHg 14%
    22:00 +23°C° 0 mm 9 m/s 734 mmHg 16%
    23:00 +23°C° 0 mm 9 m/s 734 mmHg 17%

    Mâine, 23 Noiembrie, Sâmbătă

    Timp Temperatura Precipitaţii Vânt Presiune Umiditate
    00:00 +22°C° 0 mm 8 m/s 733 mmHg 18%
    01:00 +21°C° 0 mm 7 m/s 733 mmHg 20%
    02:00 +21°C° 0 mm 8 m/s 733 mmHg 21%
    03:00 +21°C° 0 mm 8 m/s 733 mmHg 23%
    04:00 +19°C° 0 mm 9 m/s 733 mmHg 24%
    05:00 +21°C° 0.1 mm 10 m/s 733 mmHg 25%
    06:00 +22°C° 0.1 mm 11 m/s 733 mmHg 26%
    07:00 +23°C° 0.1 mm 12 m/s 734 mmHg 27%
    08:00 +24°C° 0.2 mm 12 m/s 733 mmHg 30%
    09:00 +27°C° 0.2 mm 13 m/s 733 mmHg 33%
    10:00 +28°C° 0.2 mm 13 m/s 732 mmHg 36%
    11:00 +27°C° 0.2 mm 13 m/s 731 mmHg 37%
    12:00 +27°C° 0.2 mm 13 m/s 731 mmHg 38%
    13:00 +27°C° 0.2 mm 13 m/s 730 mmHg 40%
    14:00 +27°C° 0 mm 12 m/s 730 mmHg 42%
    15:00 +26°C° 0 mm 11 m/s 729 mmHg 45%
    16:00 +26°C° 0 mm 11 m/s 729 mmHg 48%
    17:00 +24°C° 0 mm 9 m/s 729 mmHg 52%
    18:00 +23°C° 0 mm 8 m/s 729 mmHg 55%
    19:00 +23°C° 0 mm 7 m/s 729 mmHg 59%
    20:00 +22°C° 0.1 mm 6 m/s 730 mmHg 61%
    21:00 +21°C° 0.1 mm 6 m/s 730 mmHg 62%
    22:00 +20°C° 0.1 mm 5 m/s 730 mmHg 64%
    23:00 +20°C° 0 mm 5 m/s 730 mmHg 64%

    Poimâine, 24 Noiembrie, Duminică

    Timp Temperatura Precipitaţii Vânt Presiune Umiditate
    00:00 +19°C° 0 mm 5 m/s 730 mmHg 65%
    01:00 +17°C° 0 mm 5 m/s 729 mmHg 66%
    02:00 +18°C° 0 mm 4 m/s 729 mmHg 65%
    03:00 +18°C° 0 mm 3 m/s 729 mmHg 63%
    04:00 +17°C° 0 mm 3 m/s 729 mmHg 62%
    05:00 +19°C° 0 mm 3 m/s 729 mmHg 58%
    06:00 +20°C° 0 mm 3 m/s 729 mmHg 54%
    07:00 +21°C° 0 mm 3 m/s 729 mmHg 49%
    08:00 +22°C° 0 mm 3 m/s 729 mmHg 47%
    09:00 +24°C° 0 mm 2 m/s 729 mmHg 44%
    10:00 +26°C° 0 mm 2 m/s 728 mmHg 41%
    11:00 +27°C° 0 mm 2 m/s 728 mmHg 38%
    12:00 +27°C° 0 mm 2 m/s 727 mmHg 35%
    13:00 +28°C° 0 mm 2 m/s 727 mmHg 31%
    14:00 +28°C° 0 mm 2 m/s 727 mmHg 29%
    15:00 +29°C° 0 mm 2 m/s 726 mmHg 27%
    16:00 +29°C° 0 mm 3 m/s 726 mmHg 25%
    17:00 +27°C° 0.2 mm 4 m/s 727 mmHg 29%
    18:00 +26°C° 0.2 mm 4 m/s 727 mmHg 34%
    19:00 +25°C° 0.2 mm 5 m/s 728 mmHg 38%
    20:00 +22°C° 0.1 mm 6 m/s 728 mmHg 37%
    21:00 +20°C° 0.1 mm 6 m/s 729 mmHg 37%
    22:00 +18°C° 0.1 mm 7 m/s 729 mmHg 36%
    23:00 +17°C° 0 mm 7 m/s 729 mmHg 39%

    25 Noiembrie, Luni

    Timp Temperatura Precipitaţii Vânt Presiune Umiditate
    00:00 +16°C° 0 mm 7 m/s 729 mmHg 42%
    01:00 +15°C° 0 mm 7 m/s 730 mmHg 45%
    02:00 +14°C° 0 mm 7 m/s 730 mmHg 44%
    03:00 +12°C° 0 mm 8 m/s 730 mmHg 44%
    04:00 +11°C° 0 mm 9 m/s 731 mmHg 43%
    05:00 +12°C° 0 mm 10 m/s 731 mmHg 39%
    06:00 +13°C° 0 mm 11 m/s 731 mmHg 35%
    07:00 +13°C° 0 mm 12 m/s 731 mmHg 30%
    08:00 +15°C° 0 mm 12 m/s 732 mmHg 26%
    09:00 +18°C° 0 mm 12 m/s 732 mmHg 21%
    10:00 +19°C° 0 mm 12 m/s 732 mmHg 17%
    11:00 +21°C° 0 mm 12 m/s 731 mmHg 15%
    12:00 +22°C° 0 mm 12 m/s 731 mmHg 14%
    13:00 +23°C° 0 mm 12 m/s 730 mmHg 12%
    14:00 +22°C° 0 mm 13 m/s 730 mmHg 14%
    15:00 +22°C° 0 mm 13 m/s 730 mmHg 15%
    16:00 +20°C° 0 mm 14 m/s 730 mmHg 16%
    17:00 +19°C° 0 mm 12 m/s 731 mmHg 20%
    18:00 +17°C° 0 mm 10 m/s 731 mmHg 23%
    19:00 +16°C° 0 mm 9 m/s 732 mmHg 26%
    20:00 +15°C° 0 mm 8 m/s 732 mmHg 29%
    21:00 +13°C° 0 mm 8 m/s 733 mmHg 32%
    22:00 +12°C° 0 mm 8 m/s 733 mmHg 35%
    23:00 +11°C° 0 mm 7 m/s 733 mmHg 38%

    26 Noiembrie, Marţi

    Timp Temperatura Precipitaţii Vânt Presiune Umiditate
    00:00 +10°C° 0 mm 7 m/s 733 mmHg 40%
    01:00 +10°C° 0 mm 7 m/s 733 mmHg 43%
    02:00 +9°C° 0 mm 6 m/s 734 mmHg 45%
    03:00 +8°C° 0 mm 5 m/s 734 mmHg 48%
    04:00 +8°C° 0 mm 5 m/s 734 mmHg 50%
    05:00 +9°C° 0 mm 6 m/s 734 mmHg 44%
    06:00 +11°C° 0 mm 7 m/s 735 mmHg 37%
    07:00 +12°C° 0 mm 9 m/s 735 mmHg 31%
    08:00 +15°C° 0 mm 8 m/s 734 mmHg 26%
    09:00 +16°C° 0 mm 8 m/s 734 mmHg 22%
    10:00 +17°C° 0 mm 7 m/s 733 mmHg 17%
    11:00 +20°C° 0 mm 7 m/s 733 mmHg 15%
    12:00 +21°C° 0 mm 7 m/s 732 mmHg 14%
    13:00 +22°C° 0 mm 8 m/s 731 mmHg 12%
    14:00 +23°C° 0 mm 9 m/s 731 mmHg 12%
    15:00 +23°C° 0 mm 9 m/s 730 mmHg 12%
    16:00 +24°C° 0 mm 10 m/s 730 mmHg 12%
    17:00 +22°C° 0 mm 11 m/s 731 mmHg 17%
    18:00 +19°C° 0 mm 11 m/s 731 mmHg 22%
    19:00 +17°C° 0 mm 12 m/s 732 mmHg 27%
    20:00 +16°C° 0 mm 11 m/s 732 mmHg 31%
    21:00 +14°C° 0 mm 11 m/s 732 mmHg 35%
    22:00 +13°C° 0 mm 11 m/s 733 mmHg 38%
    23:00 +13°C° 0 mm 10 m/s 733 mmHg 38%

    27 Noiembrie, Miercuri

    Timp Temperatura Precipitaţii Vânt Presiune Umiditate
    00:00 +13°C° 0 mm 10 m/s 733 mmHg 38%
    01:00 +12°C° 0 mm 10 m/s 733 mmHg 38%
    02:00 +12°C° 0 mm 10 m/s 733 mmHg 40%
    03:00 +11°C° 0 mm 9 m/s 733 mmHg 41%
    04:00 +11°C° 0 mm 9 m/s 734 mmHg 43%
    05:00 +12°C° 0 mm 9 m/s 734 mmHg 39%
    06:00 +13°C° 0 mm 10 m/s 734 mmHg 36%
    07:00 +14°C° 0 mm 11 m/s 735 mmHg 33%
    08:00 +17°C° 0 mm 11 m/s 734 mmHg 29%
    09:00 +18°C° 0 mm 10 m/s 734 mmHg 26%
    10:00 +21°C° 0 mm 9 m/s 734 mmHg 23%
    11:00 +21°C° 0 mm 9 m/s 733 mmHg 20%
    12:00 +22°C° 0 mm 8 m/s 733 mmHg 18%
    13:00 +23°C° 0 mm 8 m/s 732 mmHg 16%
    14:00 +24°C° 0 mm 8 m/s 732 mmHg 15%
    15:00 +24°C° 0 mm 7 m/s 732 mmHg 14%
    16:00 +24°C° 0 mm 7 m/s 732 mmHg 13%
    17:00 +23°C° 0 mm 7 m/s 732 mmHg 15%
    18:00 +22°C° 0 mm 6 m/s 732 mmHg 16%
    19:00 +20°C° 0 mm 5 m/s 732 mmHg 18%
    20:00 +20°C° 0 mm 6 m/s 732 mmHg 21%
    21:00 +19°C° 0 mm 6 m/s 733 mmHg 23%
    22:00 +18°C° 0 mm 7 m/s 733 mmHg 26%
    23:00 +17°C° 0 mm 6 m/s 733 mmHg 29%
    Arată mai mult